Simultaneous Nadir Overpasses (SNOs) Predictions

Prediction of SNOs between METOP-C and LANDSAT-8 Satellite Orbit:

Table of predicted SNOs for the next 14.0 days since TLE Epoch: 3/19/2022
Index Date (METOP-C) Time (METOP-C) Lat,Lon (METOP-C) SZA (METOP-C ) Date (LANDSAT-8) Time (LANDSAT-8) Lat,Lon (LANDSAT-8) SZA (LANDSAT-8 ) Distance(km) Time Diff (sec)
1 03/21/2022 13:53:40 -81.09,-169.53 97.51 03/21/2022 13:54:29 -81.09,-169.65 97.50 2.12 49
2 03/21/2022 14:44:19 81.11, -1.73 82.54 03/21/2022 14:43:54 81.12, -1.58 82.55 2.72 25
3 03/24/2022 09:28:03 -81.09,-103.23 98.61 03/24/2022 09:28:42 -81.09,-103.23 98.59 0.17 39
4 03/24/2022 10:18:41 81.12, 64.97 81.49 03/24/2022 10:18:07 81.11, 64.81 81.46 2.77 34
5 03/27/2022 05:02:26 -81.08, -36.98 99.71 03/27/2022 05:02:55 -81.08, -36.88 99.69 1.65 29
6 03/27/2022 05:53:04 81.11, 131.25 80.40 03/27/2022 05:52:20 81.11, 131.12 80.36 2.44 44
7 03/30/2022 00:36:47 -81.09, 29.61 100.76 03/30/2022 00:37:06 -81.09, 29.74 100.74 2.32 19
8 03/30/2022 01:27:25 81.12,-162.12 79.35 03/30/2022 01:26:31 81.12,-162.28 79.31 2.77 54
9 04/01/2022 20:11:09 -81.09, 96.16 101.81 04/01/2022 20:11:18 -81.10, 96.28 101.78 2.24 9



Historial Predications of SNOs between METOP-C and LANDSAT-8
